Wetterdaten: Sonntag, 27.09.2015
Datum Zeit Temp. A. Feuchte A. Luftdruck Regen Wind Richtung Richtung Sonnenschein ET UV Solar Taupunkt Windchill Windben Empfang
27.09.2015 00:01 10,5 C 82 % 1024,9 hPa 0,0 l/m 0,0 km/h (0 Bft) O 86 0 min 0,000 mm 0,0 UV-I 0 W/m 7,6 C 10,5 C 0,0 km/h (0 Bft) 0,00 %
27.09.2015 00:06 10,4 C 81 % 1025,2 hPa 0,0 l/m 0,0 km/h (0 Bft) O 86 0 min 0,000 mm 0,0 UV-I 0 W/m 7,3 C 10,4 C 0,0 km/h (0 Bft) 0,00 %
27.09.2015 00:11 10,4 C 82 % 1025,2 hPa 0,0 l/m 0,0 km/h (0 Bft) O 86 0 min 0,000 mm 0,0 UV-I 0 W/m 7,5 C 10,4 C 0,0 km/h (0 Bft) 0,00 %
27.09.2015 00:16 10,4 C 82 % 1025,2 hPa 0,0 l/m 0,0 km/h (0 Bft) O 86 0 min 0,000 mm 0,0 UV-I 0 W/m 7,5 C 10,4 C 0,0 km/h (0 Bft) 0,00 %
27.09.2015 00:21 10,3 C 82 % 1025,2 hPa 0,0 l/m 0,0 km/h (0 Bft) O 86 0 min 0,000 mm 0,0 UV-I 0 W/m 7,4 C 10,3 C 0,0 km/h (0 Bft) 0,00 %
27.09.2015 00:26 10,3 C 83 % 1025,3 hPa 0,0 l/m 0,0 km/h (0 Bft) O 86 0 min 0,000 mm 0,0 UV-I 0 W/m 7,5 C 10,3 C 0,0 km/h (0 Bft) 0,00 %
27.09.2015 00:31 10,2 C 83 % 1025,2 hPa 0,0 l/m 0,0 km/h (0 Bft) O 86 0 min 0,000 mm 0,0 UV-I 0 W/m 7,4 C 10,2 C 0,0 km/h (0 Bft) 0,00 %
27.09.2015 00:36 10,1 C 83 % 1025,2 hPa 0,0 l/m 0,0 km/h (0 Bft) O 86 0 min 0,000 mm 0,0 UV-I 0 W/m 7,3 C 10,1 C 0,0 km/h (0 Bft) 0,00 %
27.09.2015 00:41 10,1 C 83 % 1025,4 hPa 0,0 l/m 0,0 km/h (0 Bft) O 86 0 min 0,000 mm 0,0 UV-I 0 W/m 7,3 C 10,1 C 0,0 km/h (0 Bft) 0,00 %
27.09.2015 00:46 10,0 C 83 % 1025,3 hPa 0,0 l/m 0,0 km/h (0 Bft) O 86 0 min 0,000 mm 0,0 UV-I 0 W/m 7,2 C 10,0 C 0,0 km/h (0 Bft) 0,00 %
27.09.2015 00:51 10,0 C 83 % 1025,2 hPa 0,0 l/m 0,0 km/h (0 Bft) O 86 0 min 0,000 mm 0,0 UV-I 0 W/m 7,2 C 10,0 C 0,0 km/h (0 Bft) 0,00 %
27.09.2015 00:56 10,0 C 82 % 1025,1 hPa 0,0 l/m 0,0 km/h (0 Bft) O 86 0 min 0,000 mm 0,0 UV-I 0 W/m 7,1 C 10,0 C 0,0 km/h (0 Bft) 0,00 %
27.09.2015 01:01 10,0 C 82 % 1025,1 hPa 0,0 l/m 0,0 km/h (0 Bft) O 83 0 min 0,000 mm 0,0 UV-I 0 W/m 7,1 C 10,0 C 0,0 km/h (0 Bft) 0,00 %
27.09.2015 01:06 10,0 C 80 % 1025,3 hPa 0,0 l/m 0,0 km/h (0 Bft) O 83 0 min 0,000 mm 0,0 UV-I 0 W/m 6,7 C 10,0 C 0,0 km/h (0 Bft) 0,00 %
27.09.2015 01:11 10,0 C 79 % 1025,4 hPa 0,0 l/m 0,0 km/h (0 Bft) O 93 0 min 0,000 mm 0,0 UV-I 0 W/m 6,5 C 10,0 C 0,0 km/h (0 Bft) 0,00 %
27.09.2015 01:16 10,0 C 79 % 1025,3 hPa 0,0 l/m 0,0 km/h (0 Bft) NO 38 0 min 0,000 mm 0,0 UV-I 0 W/m 6,5 C 10,0 C 0,0 km/h (0 Bft) 0,00 %
27.09.2015 01:21 10,0 C 81 % 1025,3 hPa 0,0 l/m 0,0 km/h (0 Bft) NO 55 0 min 0,000 mm 0,0 UV-I 0 W/m 6,9 C 10,0 C 0,0 km/h (0 Bft) 0,00 %
27.09.2015 01:26 10,0 C 82 % 1025,4 hPa 0,0 l/m 0,0 km/h (0 Bft) O-NO 58 0 min 0,000 mm 0,0 UV-I 0 W/m 7,1 C 10,0 C 0,0 km/h (0 Bft) 0,00 %
27.09.2015 01:31 10,0 C 80 % 1025,4 hPa 0,0 l/m 0,0 km/h (0 Bft) O 86 0 min 0,000 mm 0,0 UV-I 0 W/m 6,7 C 10,0 C 0,0 km/h (0 Bft) 0,00 %
27.09.2015 01:36 10,0 C 80 % 1025,4 hPa 0,0 l/m 0,0 km/h (0 Bft) O 86 0 min 0,000 mm 0,0 UV-I 0 W/m 6,7 C 10,0 C 0,0 km/h (0 Bft) 0,00 %
27.09.2015 01:41 10,0 C 79 % 1025,4 hPa 0,0 l/m 0,0 km/h (0 Bft) O-SO 106 0 min 0,000 mm 0,0 UV-I 0 W/m 6,5 C 10,0 C 0,0 km/h (0 Bft) 0,00 %
27.09.2015 01:46 10,0 C 79 % 1025,4 hPa 0,0 l/m 0,0 km/h (0 Bft) O 98 0 min 0,000 mm 0,0 UV-I 0 W/m 6,5 C 10,0 C 0,0 km/h (0 Bft) 0,00 %
27.09.2015 01:51 10,0 C 79 % 1025,3 hPa 0,0 l/m 0,0 km/h (0 Bft) NO 56 0 min 0,000 mm 0,0 UV-I 0 W/m 6,5 C 10,0 C 0,0 km/h (0 Bft) 0,00 %
27.09.2015 01:56 10,0 C 79 % 1025,4 hPa 0,0 l/m 0,0 km/h (0 Bft) O-NO 66 0 min 0,000 mm 0,0 UV-I 0 W/m 6,5 C 10,0 C 0,0 km/h (0 Bft) 0,00 %
27.09.2015 02:01 10,1 C 79 % 1025,4 hPa 0,0 l/m 0,0 km/h (0 Bft) O-NO 63 0 min 0,000 mm 0,0 UV-I 0 W/m 6,6 C 10,1 C 0,0 km/h (0 Bft) 0,00 %
27.09.2015 02:06 10,1 C 80 % 1025,2 hPa 0,0 l/m 0,0 km/h (0 Bft) O-NO 69 0 min 0,000 mm 0,0 UV-I 0 W/m 6,8 C 10,1 C 0,0 km/h (0 Bft) 0,00 %
27.09.2015 02:11 10,1 C 80 % 1025,2 hPa 0,0 l/m 0,0 km/h (0 Bft) NO 56 0 min 0,000 mm 0,0 UV-I 0 W/m 6,8 C 10,1 C 0,0 km/h (0 Bft) 0,00 %
27.09.2015 02:16 10,0 C 79 % 1025,4 hPa 0,0 l/m 0,0 km/h (0 Bft) O-NO 57 0 min 0,000 mm 0,0 UV-I 0 W/m 6,5 C 10,0 C 0,0 km/h (0 Bft) 0,00 %
27.09.2015 02:21 10,0 C 79 % 1025,3 hPa 0,0 l/m 0,0 km/h (0 Bft) O-NO 65 0 min 0,000 mm 0,0 UV-I 0 W/m 6,5 C 10,0 C 0,0 km/h (0 Bft) 0,00 %
27.09.2015 02:26 10,1 C 79 % 1025,5 hPa 0,0 l/m 0,0 km/h (0 Bft) O-NO 60 0 min 0,000 mm 0,0 UV-I 0 W/m 6,6 C 10,1 C 0,0 km/h (0 Bft) 0,00 %
27.09.2015 02:31 10,1 C 79 % 1025,4 hPa 0,0 l/m 0,0 km/h (0 Bft) O-NO 65 0 min 0,000 mm 0,0 UV-I 0 W/m 6,6 C 10,1 C 0,0 km/h (0 Bft) 0,00 %
27.09.2015 02:36 10,1 C 79 % 1025,5 hPa 0,0 l/m 0,0 km/h (0 Bft) O-NO 64 0 min 0,000 mm 0,0 UV-I 0 W/m 6,6 C 10,1 C 0,0 km/h (0 Bft) 0,00 %
27.09.2015 02:41 10,0 C 79 % 1025,5 hPa 0,0 l/m 0,0 km/h (0 Bft) O-NO 61 0 min 0,000 mm 0,0 UV-I 0 W/m 6,5 C 10,0 C 0,0 km/h (0 Bft) 0,00 %
27.09.2015 02:46 10,0 C 79 % 1025,5 hPa 0,0 l/m 0,0 km/h (0 Bft) O-NO 64 0 min 0,000 mm 0,0 UV-I 0 W/m 6,5 C 10,0 C 0,0 km/h (0 Bft) 0,00 %
27.09.2015 02:51 10,0 C 79 % 1025,5 hPa 0,0 l/m 0,0 km/h (0 Bft) O-NO 77 0 min 0,000 mm 0,0 UV-I 0 W/m 6,5 C 10,0 C 0,0 km/h (0 Bft) 0,00 %
27.09.2015 02:56 10,0 C 79 % 1025,6 hPa 0,0 l/m 0,0 km/h (0 Bft) O-NO 77 0 min 0,000 mm 0,0 UV-I 0 W/m 6,5 C 10,0 C 0,0 km/h (0 Bft) 0,00 %
27.09.2015 03:01 10,1 C 79 % 1025,6 hPa 0,0 l/m 0,0 km/h (0 Bft) O 82 0 min 0,000 mm 0,0 UV-I 0 W/m 6,6 C 10,1 C 0,0 km/h (0 Bft) 0,00 %
27.09.2015 03:06 10,1 C 77 % 1025,7 hPa 0,0 l/m 0,0 km/h (0 Bft) O-NO 72 0 min 0,000 mm 0,0 UV-I 0 W/m 6,3 C 10,1 C 0,0 km/h (0 Bft) 0,00 %
27.09.2015 03:11 10,2 C 76 % 1025,6 hPa 0,0 l/m 0,7 km/h (0 Bft) O-NO 58 0 min 0,000 mm 0,0 UV-I 0 W/m 6,2 C 10,2 C 4,0 km/h (1 Bft) 0,00 %
27.09.2015 03:16 10,4 C 74 % 1025,6 hPa 0,0 l/m 0,0 km/h (0 Bft) O-NO 64 0 min 0,000 mm 0,0 UV-I 0 W/m 6,0 C 10,4 C 0,0 km/h (0 Bft) 0,00 %
27.09.2015 03:21 10,5 C 76 % 1025,7 hPa 0,0 l/m 0,4 km/h (0 Bft) O-NO 66 0 min 0,000 mm 0,0 UV-I 0 W/m 6,5 C 10,5 C 4,0 km/h (1 Bft) 0,00 %
27.09.2015 03:26 10,5 C 74 % 1025,5 hPa 0,0 l/m 0,0 km/h (0 Bft) O-NO 69 0 min 0,000 mm 0,0 UV-I 0 W/m 6,1 C 10,5 C 0,0 km/h (0 Bft) 0,00 %
27.09.2015 03:31 10,6 C 72 % 1025,6 hPa 0,0 l/m 0,0 km/h (0 Bft) NO 51 0 min 0,000 mm 0,0 UV-I 0 W/m 5,8 C 10,6 C 0,0 km/h (0 Bft) 0,00 %
27.09.2015 03:36 10,8 C 72 % 1025,7 hPa 0,0 l/m 1,4 km/h (1 Bft) O-NO 72 0 min 0,000 mm 0,0 UV-I 0 W/m 6,0 C 10,8 C 4,0 km/h (1 Bft) 0,00 %
27.09.2015 03:41 10,9 C 70 % 1025,7 hPa 0,0 l/m 0,7 km/h (0 Bft) O-NO 75 0 min 0,000 mm 0,0 UV-I 0 W/m 5,6 C 10,9 C 4,0 km/h (1 Bft) 0,00 %
27.09.2015 03:46 10,9 C 72 % 1025,7 hPa 0,0 l/m 0,0 km/h (0 Bft) NO 45 0 min 0,000 mm 0,0 UV-I 0 W/m 6,1 C 10,9 C 0,0 km/h (0 Bft) 0,00 %
27.09.2015 03:51 10,8 C 72 % 1025,7 hPa 0,0 l/m 1,4 km/h (1 Bft) NO 42 0 min 0,000 mm 0,0 UV-I 0 W/m 6,0 C 10,8 C 4,0 km/h (1 Bft) 0,00 %
27.09.2015 03:56 10,7 C 74 % 1025,6 hPa 0,0 l/m 0,0 km/h (0 Bft) O-NO 67 0 min 0,000 mm 0,0 UV-I 0 W/m 6,3 C 10,7 C 0,0 km/h (0 Bft) 0,00 %
27.09.2015 04:01 10,6 C 75 % 1025,6 hPa 0,0 l/m 0,4 km/h (0 Bft) O-NO 65 0 min 0,000 mm 0,0 UV-I 0 W/m 6,4 C 10,6 C 4,0 km/h (1 Bft) 0,00 %
27.09.2015 04:06 10,5 C 75 % 1025,7 hPa 0,0 l/m 0,0 km/h (0 Bft) O-NO 59 0 min 0,000 mm 0,0 UV-I 0 W/m 6,3 C 10,5 C 0,0 km/h (0 Bft) 0,00 %
27.09.2015 04:11 10,4 C 74 % 1025,6 hPa 0,0 l/m 0,0 km/h (0 Bft) O-NO 59 0 min 0,000 mm 0,0 UV-I 0 W/m 6,0 C 10,4 C 0,0 km/h (0 Bft) 0,00 %
27.09.2015 04:16 10,4 C 74 % 1025,8 hPa 0,0 l/m 0,0 km/h (0 Bft) O-NO 67 0 min 0,000 mm 0,0 UV-I 0 W/m 6,0 C 10,4 C 0,0 km/h (0 Bft) 0,00 %
27.09.2015 04:21 10,4 C 74 % 1025,6 hPa 0,0 l/m 0,0 km/h (0 Bft) O-NO 72 0 min 0,000 mm 0,0 UV-I 0 W/m 6,0 C 10,4 C 0,0 km/h (0 Bft) 0,00 %
27.09.2015 04:26 10,4 C 75 % 1025,8 hPa 0,0 l/m 0,0 km/h (0 Bft) O-NO 72 0 min 0,000 mm 0,0 UV-I 0 W/m 6,2 C 10,4 C 0,0 km/h (0 Bft) 0,00 %
27.09.2015 04:31 10,3 C 76 % 1025,8 hPa 0,0 l/m 0,0 km/h (0 Bft) O 94 0 min 0,000 mm 0,0 UV-I 0 W/m 6,3 C 10,3 C 0,0 km/h (0 Bft) 0,00 %
27.09.2015 04:36 10,3 C 76 % 1025,9 hPa 0,0 l/m 0,0 km/h (0 Bft) O 93 0 min 0,000 mm 0,0 UV-I 0 W/m 6,3 C 10,3 C 0,0 km/h (0 Bft) 0,00 %
27.09.2015 04:41 10,2 C 77 % 1025,7 hPa 0,0 l/m 0,0 km/h (0 Bft) O 79 0 min 0,000 mm 0,0 UV-I 0 W/m 6,4 C 10,2 C 0,0 km/h (0 Bft) 0,00 %
27.09.2015 04:46 10,1 C 77 % 1025,9 hPa 0,0 l/m 0,0 km/h (0 Bft) O 79 0 min 0,000 mm 0,0 UV-I 0 W/m 6,3 C 10,1 C 0,0 km/h (0 Bft) 0,00 %
27.09.2015 04:51 10,1 C 77 % 1026,0 hPa 0,0 l/m 0,0 km/h (0 Bft) O 79 0 min 0,000 mm 0,0 UV-I 0 W/m 6,3 C 10,1 C 0,0 km/h (0 Bft) 0,00 %
27.09.2015 04:56 10,0 C 77 % 1026,0 hPa 0,0 l/m 0,0 km/h (0 Bft) O 79 0 min 0,000 mm 0,0 UV-I 0 W/m 6,2 C 10,0 C 0,0 km/h (0 Bft) 0,00 %
27.09.2015 05:01 10,0 C 78 % 1025,9 hPa 0,0 l/m 0,0 km/h (0 Bft) O 79 0 min 0,000 mm 0,0 UV-I 0 W/m 6,3 C 10,0 C 0,0 km/h (0 Bft) 0,00 %
27.09.2015 05:06 9,9 C 79 % 1025,9 hPa 0,0 l/m 0,0 km/h (0 Bft) O 79 0 min 0,000 mm 0,0 UV-I 0 W/m 6,4 C 9,9 C 0,0 km/h (0 Bft) 0,00 %
27.09.2015 05:11 9,9 C 79 % 1026,0 hPa 0,0 l/m 0,0 km/h (0 Bft) O 79 0 min 0,000 mm 0,0 UV-I 0 W/m 6,4 C 9,9 C 0,0 km/h (0 Bft) 0,00 %
27.09.2015 05:16 9,8 C 80 % 1026,0 hPa 0,0 l/m 0,0 km/h (0 Bft) O 79 0 min 0,000 mm 0,0 UV-I 0 W/m 6,5 C 9,8 C 0,0 km/h (0 Bft) 0,00 %
27.09.2015 05:21 9,8 C 80 % 1026,0 hPa 0,0 l/m 0,0 km/h (0 Bft) O 79 0 min 0,000 mm 0,0 UV-I 0 W/m 6,5 C 9,8 C 0,0 km/h (0 Bft) 0,00 %
27.09.2015 05:26 9,7 C 80 % 1026,1 hPa 0,0 l/m 0,0 km/h (0 Bft) O 79 0 min 0,000 mm 0,0 UV-I 0 W/m 6,4 C 9,7 C 0,0 km/h (0 Bft) 0,00 %
27.09.2015 05:31 9,7 C 81 % 1026,0 hPa 0,0 l/m 0,0 km/h (0 Bft) O 79 0 min 0,000 mm 0,0 UV-I 0 W/m 6,6 C 9,7 C 0,0 km/h (0 Bft) 0,00 %
27.09.2015 05:36 9,6 C 81 % 1026,2 hPa 0,0 l/m 0,0 km/h (0 Bft) O 79 0 min 0,000 mm 0,0 UV-I 0 W/m 6,5 C 9,6 C 0,0 km/h (0 Bft) 0,00 %
27.09.2015 05:41 9,6 C 81 % 1025,9 hPa 0,0 l/m 0,0 km/h (0 Bft) O 79 0 min 0,000 mm 0,0 UV-I 0 W/m 6,5 C 9,6 C 0,0 km/h (0 Bft) 0,00 %
27.09.2015 05:46 9,6 C 81 % 1026,2 hPa 0,0 l/m 0,0 km/h (0 Bft) O 89 0 min 0,000 mm 0,0 UV-I 0 W/m 6,5 C 9,6 C 0,0 km/h (0 Bft) 0,00 %
27.09.2015 05:51 9,6 C 81 % 1026,1 hPa 0,0 l/m 0,0 km/h (0 Bft) O 89 0 min 0,000 mm 0,0 UV-I 0 W/m 6,5 C 9,6 C 0,0 km/h (0 Bft) 0,00 %
27.09.2015 05:56 9,6 C 81 % 1026,2 hPa 0,0 l/m 0,0 km/h (0 Bft) O 87 0 min 0,000 mm 0,0 UV-I 0 W/m 6,5 C 9,6 C 0,0 km/h (0 Bft) 0,00 %
27.09.2015 06:01 9,5 C 82 % 1026,1 hPa 0,0 l/m 0,0 km/h (0 Bft) O 87 0 min 0,000 mm 0,0 UV-I 0 W/m 6,6 C 9,5 C 0,0 km/h (0 Bft) 0,00 %
27.09.2015 06:06 9,5 C 83 % 1026,1 hPa 0,0 l/m 0,0 km/h (0 Bft) O 87 0 min 0,000 mm 0,0 UV-I 0 W/m 6,8 C 9,5 C 0,0 km/h (0 Bft) 0,00 %
27.09.2015 06:11 9,4 C 83 % 1026,0 hPa 0,0 l/m 0,0 km/h (0 Bft) O 87 0 min 0,000 mm 0,0 UV-I 0 W/m 6,7 C 9,4 C 0,0 km/h (0 Bft) 0,00 %
27.09.2015 06:16 9,4 C 83 % 1026,2 hPa 0,0 l/m 0,0 km/h (0 Bft) O 87 0 min 0,000 mm 0,0 UV-I 0 W/m 6,7 C 9,4 C 0,0 km/h (0 Bft) 0,00 %
27.09.2015 06:21 9,3 C 83 % 1026,2 hPa 0,0 l/m 0,0 km/h (0 Bft) O 87 0 min 0,000 mm 0,0 UV-I 0 W/m 6,6 C 9,3 C 0,0 km/h (0 Bft) 0,00 %
27.09.2015 06:26 9,3 C 83 % 1026,3 hPa 0,0 l/m 0,0 km/h (0 Bft) O 87 0 min 0,000 mm 0,0 UV-I 0 W/m 6,6 C 9,3 C 0,0 km/h (0 Bft) 0,00 %
27.09.2015 06:31 9,2 C 82 % 1026,2 hPa 0,0 l/m 0,0 km/h (0 Bft) O 87 0 min 0,000 mm 0,0 UV-I 0 W/m 6,3 C 9,2 C 0,0 km/h (0 Bft) 0,00 %
27.09.2015 06:36 9,2 C 82 % 1026,2 hPa 0,0 l/m 0,0 km/h (0 Bft) O 87 0 min 0,000 mm 0,0 UV-I 0 W/m 6,3 C 9,2 C 0,0 km/h (0 Bft) 0,00 %
27.09.2015 06:41 9,2 C 82 % 1026,3 hPa 0,0 l/m 0,0 km/h (0 Bft) O 87 0 min 0,000 mm 0,0 UV-I 0 W/m 6,3 C 9,2 C 0,0 km/h (0 Bft) 0,00 %
27.09.2015 06:46 9,2 C 82 % 1026,4 hPa 0,0 l/m 0,0 km/h (0 Bft) O 87 0 min 0,000 mm 0,0 UV-I 0 W/m 6,3 C 9,2 C 0,0 km/h (0 Bft) 0,00 %
27.09.2015 06:51 9,2 C 83 % 1026,3 hPa 0,0 l/m 0,0 km/h (0 Bft) O 87 0 min 0,000 mm 0,0 UV-I 0 W/m 6,5 C 9,2 C 0,0 km/h (0 Bft) 0,00 %
27.09.2015 06:56 9,2 C 83 % 1026,5 hPa 0,0 l/m 0,0 km/h (0 Bft) O 87 0 min 0,000 mm 0,0 UV-I 0 W/m 6,5 C 9,2 C 0,0 km/h (0 Bft) 0,00 %
27.09.2015 07:01 9,1 C 83 % 1026,5 hPa 0,0 l/m 0,0 km/h (0 Bft) O 87 0 min 0,000 mm 0,0 UV-I 0 W/m 6,4 C 9,1 C 0,0 km/h (0 Bft) 0,00 %
27.09.2015 07:06 9,1 C 83 % 1026,4 hPa 0,0 l/m 0,0 km/h (0 Bft) O 87 0 min 0,000 mm 0,0 UV-I 0 W/m 6,4 C 9,1 C 0,0 km/h (0 Bft) 0,00 %
27.09.2015 07:11 9,1 C 83 % 1026,6 hPa 0,0 l/m 0,0 km/h (0 Bft) O-NO 75 0 min 0,000 mm 0,0 UV-I 0 W/m 6,4 C 9,1 C 0,0 km/h (0 Bft) 0,00 %
27.09.2015 07:16 9,1 C 83 % 1026,5 hPa 0,0 l/m 0,0 km/h (0 Bft) O-NO 75 0 min 0,000 mm 0,0 UV-I 2 W/m 6,4 C 9,1 C 0,0 km/h (0 Bft) 0,00 %
27.09.2015 07:21 9,3 C 83 % 1026,5 hPa 0,0 l/m 0,0 km/h (0 Bft) O-NO 75 0 min 0,000 mm 0,0 UV-I 5 W/m 6,6 C 9,3 C 0,0 km/h (0 Bft) 0,00 %
27.09.2015 07:26 9,4 C 83 % 1026,7 hPa 0,0 l/m 0,0 km/h (0 Bft) O-NO 75 0 min 0,000 mm 0,0 UV-I 9 W/m 6,7 C 9,4 C 0,0 km/h (0 Bft) 0,00 %
27.09.2015 07:31 9,4 C 83 % 1026,7 hPa 0,0 l/m 0,0 km/h (0 Bft) O-NO 75 0 min 0,000 mm 0,0 UV-I 16 W/m 6,7 C 9,4 C 0,0 km/h (0 Bft) 0,00 %
27.09.2015 07:36 9,5 C 84 % 1026,9 hPa 0,0 l/m 0,0 km/h (0 Bft) O-NO 75 0 min 0,000 mm 0,0 UV-I 21 W/m 6,9 C 9,5 C 0,0 km/h (0 Bft) 0,00 %
27.09.2015 07:41 9,5 C 85 % 1026,9 hPa 0,0 l/m 0,0 km/h (0 Bft) O-NO 75 0 min 0,000 mm 0,0 UV-I 25 W/m 7,1 C 9,5 C 0,0 km/h (0 Bft) 0,00 %
27.09.2015 07:46 9,4 C 86 % 1026,8 hPa 0,0 l/m 0,0 km/h (0 Bft) O-NO 75 0 min 0,000 mm 0,0 UV-I 28 W/m 7,2 C 9,4 C 0,0 km/h (0 Bft) 0,00 %
27.09.2015 07:51 9,4 C 86 % 1026,8 hPa 0,0 l/m 0,0 km/h (0 Bft) O-NO 75 0 min 0,000 mm 0,0 UV-I 30 W/m 7,2 C 9,4 C 0,0 km/h (0 Bft) 0,00 %
27.09.2015 07:56 9,4 C 86 % 1026,9 hPa 0,0 l/m 0,0 km/h (0 Bft) O-NO 75 0 min 0,000 mm 0,0 UV-I 30 W/m 7,2 C 9,4 C 0,0 km/h (0 Bft) 0,00 %
27.09.2015 08:01 9,4 C 86 % 1027,0 hPa 0,0 l/m 0,0 km/h (0 Bft) O-NO 75 0 min 0,000 mm 0,0 UV-I 29 W/m 7,2 C 9,4 C 0,0 km/h (0 Bft) 0,00 %
27.09.2015 08:06 9,4 C 85 % 1026,8 hPa 0,0 l/m 0,0 km/h (0 Bft) O-NO 75 0 min 0,000 mm 0,0 UV-I 29 W/m 7,0 C 9,4 C 0,0 km/h (0 Bft) 0,00 %
27.09.2015 08:11 9,5 C 87 % 1026,9 hPa 0,0 l/m 0,0 km/h (0 Bft) O-NO 75 0 min 0,000 mm 0,0 UV-I 29 W/m 7,4 C 9,5 C 0,0 km/h (0 Bft) 0,00 %
27.09.2015 08:16 9,6 C 88 % 1027,0 hPa 0,0 l/m 0,0 km/h (0 Bft) O-NO 75 0 min 0,000 mm 0,0 UV-I 30 W/m 7,7 C 9,6 C 0,0 km/h (0 Bft) 0,00 %
27.09.2015 08:21 9,6 C 87 % 1026,9 hPa 0,0 l/m 0,0 km/h (0 Bft) O-NO 75 0 min 0,000 mm 0,0 UV-I 31 W/m 7,5 C 9,6 C 0,0 km/h (0 Bft) 0,00 %
27.09.2015 08:26 9,6 C 87 % 1027,1 hPa 0,0 l/m 0,0 km/h (0 Bft) O-NO 75 0 min 0,000 mm 0,0 UV-I 32 W/m 7,5 C 9,6 C 0,0 km/h (0 Bft) 0,00 %
27.09.2015 08:31 9,6 C 87 % 1027,0 hPa 0,0 l/m 0,0 km/h (0 Bft) O-NO 75 0 min 0,000 mm 0,0 UV-I 32 W/m 7,5 C 9,6 C 0,0 km/h (0 Bft) 0,00 %
27.09.2015 08:36 9,7 C 86 % 1027,1 hPa 0,0 l/m 0,0 km/h (0 Bft) O-NO 71 0 min 0,000 mm 0,0 UV-I 38 W/m 7,5 C 9,7 C 0,0 km/h (0 Bft) 0,00 %
27.09.2015 08:41 9,9 C 83 % 1027,3 hPa 0,0 l/m 0,0 km/h (0 Bft) NO 52 0 min 0,000 mm 0,0 UV-I 43 W/m 7,2 C 9,9 C 0,0 km/h (0 Bft) 0,00 %
27.09.2015 08:46 10,0 C 82 % 1027,3 hPa 0,0 l/m 0,0 km/h (0 Bft) NO 56 0 min 0,000 mm 0,0 UV-I 46 W/m 7,1 C 10,0 C 0,0 km/h (0 Bft) 0,00 %
27.09.2015 08:51 10,1 C 81 % 1027,3 hPa 0,0 l/m 0,0 km/h (0 Bft) NO 56 0 min 0,000 mm 0,0 UV-I 51 W/m 7,0 C 10,1 C 0,0 km/h (0 Bft) 0,00 %
27.09.2015 08:56 10,2 C 80 % 1027,3 hPa 0,0 l/m 0,0 km/h (0 Bft) O-NO 62 0 min 0,000 mm 0,0 UV-I 53 W/m 6,9 C 10,2 C 0,0 km/h (0 Bft) 0,00 %
27.09.2015 09:01 10,2 C 80 % 1027,3 hPa 0,0 l/m 0,0 km/h (0 Bft) O-NO 72 0 min 0,000 mm 0,0 UV-I 57 W/m 6,9 C 10,2 C 0,0 km/h (0 Bft) 0,00 %
27.09.2015 09:06 10,3 C 80 % 1027,5 hPa 0,0 l/m 0,0 km/h (0 Bft) NO 53 0 min 0,000 mm 0,0 UV-I 61 W/m 7,0 C 10,3 C 0,0 km/h (0 Bft) 0,00 %
27.09.2015 09:11 10,4 C 79 % 1027,4 hPa 0,0 l/m 0,0 km/h (0 Bft) O-NO 70 0 min 0,000 mm 0,0 UV-I 68 W/m 6,9 C 10,4 C 0,0 km/h (0 Bft) 0,00 %
27.09.2015 09:16 10,5 C 79 % 1027,6 hPa 0,0 l/m 0,0 km/h (0 Bft) O-NO 65 0 min 0,000 mm 0,0 UV-I 73 W/m 7,0 C 10,5 C 0,0 km/h (0 Bft) 0,00 %
27.09.2015 09:21 10,5 C 79 % 1027,7 hPa 0,0 l/m 0,0 km/h (0 Bft) O-NO 57 0 min 0,000 mm 0,0 UV-I 74 W/m 7,0 C 10,5 C 0,0 km/h (0 Bft) 0,00 %
27.09.2015 09:26 10,5 C 80 % 1027,7 hPa 0,0 l/m 0,0 km/h (0 Bft) O-NO 63 0 min 0,000 mm 0,0 UV-I 77 W/m 7,2 C 10,5 C 0,0 km/h (0 Bft) 0,00 %
27.09.2015 09:31 10,6 C 80 % 1027,6 hPa 0,0 l/m 0,0 km/h (0 Bft) O-NO 76 0 min 0,000 mm 0,0 UV-I 79 W/m 7,3 C 10,6 C 0,0 km/h (0 Bft) 0,00 %
27.09.2015 09:36 10,6 C 79 % 1027,8 hPa 0,0 l/m 0,0 km/h (0 Bft) O 82 0 min 0,000 mm 0,0 UV-I 79 W/m 7,1 C 10,6 C 0,0 km/h (0 Bft) 0,00 %
27.09.2015 09:41 10,7 C 80 % 1027,9 hPa 0,0 l/m 0,0 km/h (0 Bft) O 79 0 min 0,000 mm 0,0 UV-I 84 W/m 7,4 C 10,7 C 0,0 km/h (0 Bft) 0,00 %
27.09.2015 09:46 10,8 C 79 % 1027,8 hPa 0,0 l/m 0,4 km/h (0 Bft) O 89 0 min 0,000 mm 1,0 UV-I 93 W/m 7,3 C 10,8 C 4,0 km/h (1 Bft) 0,00 %
27.09.2015 09:51 10,9 C 78 % 1027,9 hPa 0,0 l/m 0,0 km/h (0 Bft) O 79 0 min 0,000 mm 1,0 UV-I 99 W/m 7,2 C 10,9 C 0,0 km/h (0 Bft) 0,00 %
27.09.2015 09:56 10,9 C 78 % 1028,0 hPa 0,0 l/m 0,0 km/h (0 Bft) O-NO 77 0 min 0,000 mm 1,0 UV-I 109 W/m 7,2 C 10,9 C 0,0 km/h (0 Bft) 0,00 %
27.09.2015 10:01 11,0 C 78 % 1028,3 hPa 0,0 l/m 0,0 km/h (0 Bft) O 83 0 min 0,000 mm 1,0 UV-I 121 W/m 7,3 C 11,0 C 0,0 km/h (0 Bft) 0,00 %
27.09.2015 10:06 11,2 C 77 % 1028,2 hPa 0,0 l/m 0,0 km/h (0 Bft) O-NO 62 0 min 0,000 mm 1,0 UV-I 132 W/m 7,3 C 11,2 C 0,0 km/h (0 Bft) 0,00 %
27.09.2015 10:11 11,2 C 76 % 1028,0 hPa 0,0 l/m 0,0 km/h (0 Bft) O 82 0 min 0,000 mm 1,0 UV-I 144 W/m 7,1 C 11,2 C 0,0 km/h (0 Bft) 0,00 %
27.09.2015 10:16 11,3 C 76 % 1028,1 hPa 0,0 l/m 0,0 km/h (0 Bft) O-NO 66 0 min 0,000 mm 1,0 UV-I 152 W/m 7,2 C 11,3 C 0,0 km/h (0 Bft) 0,00 %
27.09.2015 10:21 11,4 C 77 % 1028,1 hPa 0,0 l/m 0,0 km/h (0 Bft) O-NO 70 0 min 0,000 mm 1,0 UV-I 162 W/m 7,5 C 11,4 C 0,0 km/h (0 Bft) 0,00 %
27.09.2015 10:26 11,5 C 75 % 1028,0 hPa 0,0 l/m 0,0 km/h (0 Bft) O 86 0 min 0,000 mm 1,0 UV-I 174 W/m 7,2 C 11,5 C 0,0 km/h (0 Bft) 0,00 %
27.09.2015 10:31 11,7 C 73 % 1028,2 hPa 0,0 l/m 0,0 km/h (0 Bft) NO 41 0 min 0,000 mm 1,0 UV-I 182 W/m 7,0 C 11,7 C 0,0 km/h (0 Bft) 0,00 %
27.09.2015 10:36 11,8 C 75 % 1027,9 hPa 0,0 l/m 0,0 km/h (0 Bft) N 5 0 min 0,000 mm 1,0 UV-I 185 W/m 7,5 C 11,8 C 0,0 km/h (0 Bft) 0,00 %
27.09.2015 10:41 11,8 C 74 % 1028,0 hPa 0,0 l/m 0,0 km/h (0 Bft) NO 41 0 min 0,000 mm 1,0 UV-I 183 W/m 7,3 C 11,8 C 0,0 km/h (0 Bft) 0,00 %
27.09.2015 10:46 11,8 C 73 % 1028,1 hPa 0,0 l/m 2,2 km/h (1 Bft) O 87 0 min 0,000 mm 1,0 UV-I 182 W/m 7,1 C 11,8 C 4,0 km/h (1 Bft) 0,00 %
27.09.2015 10:51 11,9 C 71 % 1028,1 hPa 0,0 l/m 4,7 km/h (1 Bft) O 91 0 min 0,000 mm 1,0 UV-I 183 W/m 6,8 C 11,9 C 7,9 km/h (2 Bft) 0,00 %
27.09.2015 10:56 12,0 C 70 % 1028,2 hPa 0,0 l/m 0,0 km/h (0 Bft) NO 54 0 min 0,000 mm 1,0 UV-I 186 W/m 6,7 C 12,0 C 0,0 km/h (0 Bft) 0,00 %
27.09.2015 11:01 12,1 C 68 % 1028,2 hPa 0,0 l/m 2,9 km/h (1 Bft) O-NO 65 0 min 0,000 mm 1,0 UV-I 193 W/m 6,4 C 12,1 C 4,0 km/h (1 Bft) 0,00 %
27.09.2015 11:06 12,1 C 68 % 1028,2 hPa 0,0 l/m 2,2 km/h (1 Bft) N-NO 27 0 min 0,000 mm 1,0 UV-I 200 W/m 6,4 C 12,1 C 4,0 km/h (1 Bft) 0,00 %
27.09.2015 11:11 12,2 C 68 % 1028,0 hPa 0,0 l/m 2,2 km/h (1 Bft) NO 48 0 min 0,000 mm 1,0 UV-I 211 W/m 6,5 C 12,2 C 4,0 km/h (1 Bft) 0,00 %
27.09.2015 11:16 12,2 C 67 % 1028,1 hPa 0,0 l/m 1,4 km/h (1 Bft) O-NO 73 0 min 0,000 mm 1,0 UV-I 227 W/m 6,3 C 12,2 C 4,0 km/h (1 Bft) 0,00 %
27.09.2015 11:21 12,3 C 66 % 1027,9 hPa 0,0 l/m 1,4 km/h (1 Bft) O-NO 64 0 min 0,000 mm 1,0 UV-I 240 W/m 6,1 C 12,3 C 4,0 km/h (1 Bft) 0,00 %
27.09.2015 11:26 12,4 C 65 % 1027,5 hPa 0,0 l/m 0,0 km/h (0 Bft) N 9 0 min 0,000 mm 1,0 UV-I 254 W/m 6,0 C 12,4 C 0,0 km/h (0 Bft) 0,00 %
27.09.2015 11:31 12,5 C 65 % 1028,1 hPa 0,0 l/m 0,0 km/h (0 Bft) N-NO 24 0 min 0,000 mm 1,0 UV-I 264 W/m 6,1 C 12,5 C 0,0 km/h (0 Bft) 0,00 %
27.09.2015 11:36 12,6 C 64 % 1028,0 hPa 0,0 l/m 4,3 km/h (1 Bft) NO 54 0 min 0,000 mm 1,0 UV-I 273 W/m 6,0 C 12,6 C 7,9 km/h (2 Bft) 0,00 %
27.09.2015 11:41 12,6 C 64 % 1027,9 hPa 0,0 l/m 0,0 km/h (0 Bft) O-NO 64 0 min 0,000 mm 1,0 UV-I 290 W/m 6,0 C 12,6 C 0,0 km/h (0 Bft) 0,00 %
27.09.2015 11:46 12,7 C 63 % 1028,2 hPa 0,0 l/m 2,2 km/h (1 Bft) O-SO 113 0 min 0,000 mm 1,0 UV-I 296 W/m 5,8 C 12,7 C 4,0 km/h (1 Bft) 0,00 %
27.09.2015 11:51 12,9 C 62 % 1027,8 hPa 0,0 l/m 6,8 km/h (2 Bft) O 85 0 min 0,000 mm 1,0 UV-I 306 W/m 5,8 C 12,7 C 7,9 km/h (2 Bft) 0,00 %
27.09.2015 11:56 13,0 C 61 % 1028,0 hPa 0,0 l/m 4,0 km/h (1 Bft) N-NO 33 0 min 0,000 mm 1,0 UV-I 300 W/m 5,7 C 13,0 C 7,9 km/h (2 Bft) 0,00 %
27.09.2015 12:01 13,0 C 63 % 1028,3 hPa 0,0 l/m 1,4 km/h (1 Bft) O-SO 104 0 min 0,000 mm 1,0 UV-I 301 W/m 6,1 C 13,0 C 4,0 km/h (1 Bft) 0,00 %
27.09.2015 12:06 13,1 C 61 % 1028,1 hPa 0,0 l/m 4,3 km/h (1 Bft) O 97 0 min 0,000 mm 1,0 UV-I 304 W/m 5,8 C 13,1 C 7,9 km/h (2 Bft) 0,00 %
27.09.2015 12:11 13,4 C 62 % 1027,9 hPa 0,0 l/m 0,0 km/h (0 Bft) O-NO 69 0 min 0,000 mm 2,0 UV-I 317 W/m 6,3 C 13,4 C 0,0 km/h (0 Bft) 0,00 %
27.09.2015 12:16 13,5 C 61 % 1028,0 hPa 0,0 l/m 0,0 km/h (0 Bft) O-NO 74 0 min 0,000 mm 2,0 UV-I 321 W/m 6,1 C 13,5 C 0,0 km/h (0 Bft) 0,00 %
27.09.2015 12:21 13,6 C 61 % 1028,0 hPa 0,0 l/m 3,2 km/h (1 Bft) SO 132 0 min 0,000 mm 2,0 UV-I 319 W/m 6,2 C 13,6 C 7,9 km/h (2 Bft) 0,00 %
27.09.2015 12:26 13,8 C 60 % 1028,1 hPa 0,0 l/m 0,7 km/h (0 Bft) O 99 0 min 0,000 mm 2,0 UV-I 321 W/m 6,2 C 13,8 C 4,0 km/h (1 Bft) 0,00 %
27.09.2015 12:31 14,0 C 60 % 1028,0 hPa 0,0 l/m 6,5 km/h (2 Bft) O 96 0 min 0,000 mm 1,0 UV-I 302 W/m 6,4 C 14,0 C 7,9 km/h (2 Bft) 0,00 %
27.09.2015 12:36 13,9 C 60 % 1028,0 hPa 0,0 l/m 4,7 km/h (1 Bft) O-NO 61 0 min 0,000 mm 1,0 UV-I 270 W/m 6,3 C 13,9 C 7,9 km/h (2 Bft) 0,00 %
27.09.2015 12:41 13,7 C 61 % 1028,1 hPa 0,0 l/m 1,4 km/h (1 Bft) O 87 0 min 0,000 mm 1,0 UV-I 264 W/m 6,3 C 13,7 C 4,0 km/h (1 Bft) 0,00 %
27.09.2015 12:46 13,6 C 61 % 1028,0 hPa 0,0 l/m 0,0 km/h (0 Bft) O-SO 107 0 min 0,000 mm 1,0 UV-I 264 W/m 6,2 C 13,6 C 0,0 km/h (0 Bft) 0,00 %
27.09.2015 12:51 13,8 C 59 % 1028,2 hPa 0,0 l/m 2,2 km/h (1 Bft) O-NO 66 0 min 0,000 mm 1,0 UV-I 247 W/m 5,9 C 13,8 C 4,0 km/h (1 Bft) 0,00 %
27.09.2015 12:56 13,9 C 61 % 1028,3 hPa 0,0 l/m 2,2 km/h (1 Bft) O 100 0 min 0,000 mm 1,0 UV-I 219 W/m 6,5 C 13,9 C 4,0 km/h (1 Bft) 0,00 %
27.09.2015 13:02 13,8 C 61 % 1028,3 hPa 0,0 l/m 0,0 km/h (0 Bft) O-NO 75 0 min 0,000 mm 1,0 UV-I 217 W/m 6,4 C 13,8 C 0,0 km/h (0 Bft) 0,00 %
27.09.2015 13:07 13,8 C 61 % 1028,2 hPa 0,0 l/m 3,2 km/h (1 Bft) O-NO 77 0 min 0,000 mm 1,0 UV-I 209 W/m 6,4 C 13,8 C 4,0 km/h (1 Bft) 0,00 %
27.09.2015 13:12 13,8 C 61 % 1028,3 hPa 0,0 l/m 0,0 km/h (0 Bft) O-NO 75 0 min 0,000 mm 1,0 UV-I 190 W/m 6,4 C 13,8 C 0,0 km/h (0 Bft) 0,00 %
27.09.2015 13:17 13,7 C 61 % 1028,3 hPa 0,0 l/m 4,7 km/h (1 Bft) O 90 0 min 0,000 mm 1,0 UV-I 182 W/m 6,3 C 13,7 C 7,9 km/h (2 Bft) 0,00 %
27.09.2015 13:22 13,5 C 61 % 1028,4 hPa 0,0 l/m 0,0 km/h (0 Bft) O 80 0 min 0,000 mm 1,0 UV-I 181 W/m 6,1 C 13,5 C 0,0 km/h (0 Bft) 0,00 %
27.09.2015 13:27 13,4 C 61 % 1028,5 hPa 0,0 l/m 0,7 km/h (0 Bft) N-NO 24 0 min 0,000 mm 1,0 UV-I 186 W/m 6,0 C 13,4 C 4,0 km/h (1 Bft) 0,00 %
27.09.2015 13:32 13,3 C 61 % 1028,2 hPa 0,0 l/m 0,0 km/h (0 Bft) O 95 0 min 0,000 mm 1,0 UV-I 183 W/m 5,9 C 13,3 C 0,0 km/h (0 Bft) 0,00 %
27.09.2015 13:37 13,2 C 61 % 1028,2 hPa 0,0 l/m 3,2 km/h (1 Bft) O-SO 116 0 min 0,000 mm 1,0 UV-I 179 W/m 5,8 C 13,2 C 4,0 km/h (1 Bft) 0,00 %
27.09.2015 13:42 13,3 C 61 % 1028,3 hPa 0,0 l/m 0,0 km/h (0 Bft) O 83 0 min 0,000 mm 1,0 UV-I 178 W/m 5,9 C 13,3 C 0,0 km/h (0 Bft) 0,00 %
27.09.2015 13:47 13,3 C 62 % 1028,3 hPa 0,0 l/m 0,0 km/h (0 Bft) O-NO 64 0 min 0,000 mm 1,0 UV-I 176 W/m 6,2 C 13,3 C 0,0 km/h (0 Bft) 0,00 %
27.09.2015 13:52 13,3 C 62 % 1028,1 hPa 0,0 l/m 0,7 km/h (0 Bft) SO 129 0 min 0,000 mm 1,0 UV-I 184 W/m 6,2 C 13,3 C 4,0 km/h (1 Bft) 0,00 %
27.09.2015 13:57 13,3 C 61 % 1028,1 hPa 0,0 l/m 0,0 km/h (0 Bft) NO 56 0 min 0,000 mm 1,0 UV-I 200 W/m 5,9 C 13,3 C 0,0 km/h (0 Bft) 0,00 %
27.09.2015 14:02 13,4 C 61 % 1028,1 hPa 0,0 l/m 0,0 km/h (0 Bft) O-NO 73 0 min 0,000 mm 1,0 UV-I 218 W/m 6,0 C 13,4 C 0,0 km/h (0 Bft) 0,00 %
27.09.2015 14:07 13,6 C 60 % 1028,1 hPa 0,0 l/m 0,0 km/h (0 Bft) N-NW 335 0 min 0,000 mm 1,0 UV-I 233 W/m 6,0 C 13,6 C 0,0 km/h (0 Bft) 0,00 %
27.09.2015 14:12 13,9 C 59 % 1028,0 hPa 0,0 l/m 0,0 km/h (0 Bft) O-NO 73 0 min 0,000 mm 1,0 UV-I 241 W/m 6,0 C 13,9 C 0,0 km/h (0 Bft) 0,00 %
27.09.2015 14:17 14,1 C 58 % 1028,0 hPa 0,0 l/m 0,4 km/h (0 Bft) O-NO 61 0 min 0,000 mm 1,0 UV-I 246 W/m 6,0 C 14,1 C 4,0 km/h (1 Bft) 0,00 %
27.09.2015 14:22 14,3 C 55 % 1028,0 hPa 0,0 l/m 0,0 km/h (0 Bft) O 100 0 min 0,000 mm 1,0 UV-I 251 W/m 5,4 C 14,3 C 0,0 km/h (0 Bft) 0,00 %
27.09.2015 14:27 14,4 C 54 % 1027,9 hPa 0,0 l/m 0,0 km/h (0 Bft) O-NO 62 0 min 0,000 mm 1,0 UV-I 256 W/m 5,2 C 14,4 C 0,0 km/h (0 Bft) 0,00 %
27.09.2015 14:32 14,5 C 58 % 1028,0 hPa 0,0 l/m 0,0 km/h (0 Bft) O 89 0 min 0,000 mm 1,0 UV-I 262 W/m 6,3 C 14,5 C 0,0 km/h (0 Bft) 0,00 %
27.09.2015 14:37 14,6 C 54 % 1028,0 hPa 0,0 l/m 0,0 km/h (0 Bft) O-NO 61 0 min 0,000 mm 1,0 UV-I 246 W/m 5,4 C 14,6 C 0,0 km/h (0 Bft) 0,00 %
27.09.2015 14:42 14,6 C 55 % 1028,0 hPa 0,0 l/m 0,4 km/h (0 Bft) SW 232 0 min 0,000 mm 1,0 UV-I 258 W/m 5,7 C 14,6 C 4,0 km/h (1 Bft) 0,00 %
27.09.2015 14:47 14,5 C 53 % 1027,9 hPa 0,0 l/m 0,0 km/h (0 Bft) O 100 0 min 0,000 mm 1,0 UV-I 280 W/m 5,0 C 14,5 C 0,0 km/h (0 Bft) 0,00 %
27.09.2015 14:52 14,5 C 52 % 1028,0 hPa 0,0 l/m 0,0 km/h (0 Bft) O 81 5 min 0,000 mm 1,0 UV-I 316 W/m 4,8 C 14,5 C 0,0 km/h (0 Bft) 0,00 %
27.09.2015 14:57 14,7 C 50 % 1028,0 hPa 0,0 l/m 0,0 km/h (0 Bft) S 178 0 min 0,000 mm 1,0 UV-I 296 W/m 4,4 C 14,7 C 0,0 km/h (0 Bft) 0,00 %
27.09.2015 15:02 15,0 C 50 % 1028,1 hPa 0,0 l/m 0,0 km/h (0 Bft) O 83 5 min 0,000 mm 1,0 UV-I 373 W/m 4,7 C 15,0 C 0,0 km/h (0 Bft) 0,00 %
27.09.2015 15:07 15,1 C 50 % 1028,1 hPa 0,0 l/m 0,0 km/h (0 Bft) S-SO 147 0 min 0,000 mm 1,0 UV-I 210 W/m 4,8 C 15,1 C 0,0 km/h (0 Bft) 0,00 %
27.09.2015 15:12 15,2 C 51 % 1028,3 hPa 0,0 l/m 0,0 km/h (0 Bft) O-NO 60 0 min 0,000 mm 1,0 UV-I 193 W/m 5,1 C 15,2 C 0,0 km/h (0 Bft) 0,00 %
27.09.2015 15:17 15,1 C 51 % 1028,2 hPa 0,0 l/m 0,0 km/h (0 Bft) O 98 0 min 0,000 mm 1,0 UV-I 184 W/m 5,0 C 15,1 C 0,0 km/h (0 Bft) 0,00 %
27.09.2015 15:22 14,9 C 51 % 1028,1 hPa 0,0 l/m 0,0 km/h (0 Bft) O-NO 59 0 min 0,000 mm 1,0 UV-I 181 W/m 4,9 C 14,9 C 0,0 km/h (0 Bft) 0,00 %
27.09.2015 15:27 14,5 C 52 % 1027,6 hPa 0,0 l/m 1,8 km/h (1 Bft) O 79 0 min 0,000 mm 1,0 UV-I 181 W/m 4,8 C 14,5 C 4,0 km/h (1 Bft) 0,00 %
27.09.2015 15:32 14,1 C 53 % 1028,3 hPa 0,0 l/m 0,0 km/h (0 Bft) O-NO 65 0 min 0,000 mm 1,0 UV-I 185 W/m 4,7 C 14,1 C 0,0 km/h (0 Bft) 0,00 %
27.09.2015 15:37 13,8 C 53 % 1028,3 hPa 0,0 l/m 0,0 km/h (0 Bft) NO 55 0 min 0,000 mm 1,0 UV-I 185 W/m 4,4 C 13,8 C 0,0 km/h (0 Bft) 0,00 %
27.09.2015 15:42 13,9 C 52 % 1028,2 hPa 0,0 l/m 0,0 km/h (0 Bft) O-NO 73 0 min 0,000 mm 1,0 UV-I 191 W/m 4,2 C 13,9 C 0,0 km/h (0 Bft) 0,00 %
27.09.2015 15:47 14,0 C 52 % 1028,2 hPa 0,0 l/m 0,0 km/h (0 Bft) O-NO 73 0 min 0,000 mm 1,0 UV-I 209 W/m 4,3 C 14,0 C 0,0 km/h (0 Bft) 0,00 %
27.09.2015 15:52 14,2 C 52 % 1028,2 hPa 0,0 l/m 0,0 km/h (0 Bft) O-NO 59 0 min 0,000 mm 1,0 UV-I 229 W/m 4,5 C 14,2 C 0,0 km/h (0 Bft) 0,00 %
27.09.2015 15:57 14,3 C 52 % 1028,2 hPa 0,0 l/m 0,0 km/h (0 Bft) O-NO 67 0 min 0,000 mm 1,0 UV-I 224 W/m 4,6 C 14,3 C 0,0 km/h (0 Bft) 0,00 %
27.09.2015 16:02 14,4 C 51 % 1028,3 hPa 0,0 l/m 0,0 km/h (0 Bft) O-NO 61 0 min 0,000 mm 1,0 UV-I 216 W/m 4,4 C 14,4 C 0,0 km/h (0 Bft) 0,00 %
27.09.2015 16:07 14,4 C 54 % 1028,3 hPa 0,0 l/m 0,0 km/h (0 Bft) O 83 0 min 0,000 mm 1,0 UV-I 208 W/m 5,2 C 14,4 C 0,0 km/h (0 Bft) 0,00 %
27.09.2015 16:12 14,4 C 51 % 1028,2 hPa 0,0 l/m 0,0 km/h (0 Bft) O-NO 60 5 min 0,000 mm 1,0 UV-I 288 W/m 4,4 C 14,4 C 0,0 km/h (0 Bft) 0,00 %
27.09.2015 16:17 14,3 C 51 % 1027,8 hPa 0,0 l/m 0,0 km/h (0 Bft) O 84 5 min 0,000 mm 1,0 UV-I 551 W/m 4,3 C 14,3 C 0,0 km/h (0 Bft) 0,00 %
27.09.2015 16:22 14,3 C 52 % 1027,7 hPa 0,0 l/m 0,0 km/h (0 Bft) O-NO 73 5 min 0,000 mm 1,0 UV-I 400 W/m 4,6 C 14,3 C 0,0 km/h (0 Bft) 0,00 %
27.09.2015 16:27 14,5 C 50 % 1027,5 hPa 0,0 l/m 0,0 km/h (0 Bft) SO 135 5 min 0,000 mm 1,0 UV-I 677 W/m 4,2 C 14,5 C 0,0 km/h (0 Bft) 0,00 %
27.09.2015 16:32 15,0 C 49 % 1027,7 hPa 0,0 l/m 0,0 km/h (0 Bft) O-NO 70 5 min 0,000 mm 1,0 UV-I 706 W/m 4,4 C 15,0 C 0,0 km/h (0 Bft) 0,00 %
27.09.2015 16:37 15,5 C 47 % 1027,9 hPa 0,0 l/m 0,0 km/h (0 Bft) NO 47 5 min 0,000 mm 1,0 UV-I 369 W/m 4,2 C 15,5 C 0,0 km/h (0 Bft) 0,00 %
27.09.2015 16:42 16,2 C 41 % 1028,1 hPa 0,0 l/m 0,0 km/h (0 Bft) O 86 5 min 0,000 mm 1,0 UV-I 280 W/m 2,9 C 16,2 C 0,0 km/h (0 Bft) 0,00 %
27.09.2015 16:47 16,7 C 46 % 1027,9 hPa 0,0 l/m 0,0 km/h (0 Bft) NO 48 5 min 0,000 mm 1,0 UV-I 372 W/m 5,0 C 16,7 C 0,0 km/h (0 Bft) 0,00 %
27.09.2015 16:52 16,6 C 44 % 1027,5 hPa 0,0 l/m 1,4 km/h (1 Bft) S 174 5 min 0,000 mm 1,0 UV-I 682 W/m 4,3 C 16,6 C 4,0 km/h (1 Bft) 0,00 %
27.09.2015 16:57 16,6 C 43 % 1027,6 hPa 0,0 l/m 0,0 km/h (0 Bft) S-SW 196 5 min 0,000 mm 1,0 UV-I 630 W/m 4,0 C 16,6 C 0,0 km/h (0 Bft) 0,00 %
27.09.2015 17:02 17,2 C 41 % 1028,4 hPa 0,0 l/m 0,0 km/h (0 Bft) SO 138 0 min 0,000 mm 0,0 UV-I 158 W/m 3,8 C 17,2 C 0,0 km/h (0 Bft) 0,00 %
27.09.2015 17:07 17,4 C 43 % 1028,6 hPa 0,0 l/m 3,2 km/h (1 Bft) SO 128 0 min 0,000 mm 0,0 UV-I 114 W/m 4,7 C 17,4 C 7,9 km/h (2 Bft) 0,00 %
27.09.2015 17:12 17,1 C 43 % 1028,5 hPa 0,0 l/m 0,0 km/h (0 Bft) O-NO 78 0 min 0,000 mm 0,0 UV-I 96 W/m 4,4 C 17,1 C 0,0 km/h (0 Bft) 0,00 %
27.09.2015 17:17 16,5 C 46 % 1028,7 hPa 0,0 l/m 0,0 km/h (0 Bft) SO 128 0 min 0,000 mm 0,0 UV-I 88 W/m 4,8 C 16,5 C 0,0 km/h (0 Bft) 0,00 %
27.09.2015 17:22 15,9 C 49 % 1028,5 hPa 0,0 l/m 0,0 km/h (0 Bft) O-NO 75 0 min 0,000 mm 0,0 UV-I 84 W/m 5,2 C 15,9 C 0,0 km/h (0 Bft) 0,00 %
27.09.2015 17:27 15,4 C 51 % 1028,7 hPa 0,0 l/m 0,0 km/h (0 Bft) O 91 0 min 0,000 mm 0,0 UV-I 80 W/m 5,3 C 15,4 C 0,0 km/h (0 Bft) 0,00 %
27.09.2015 17:32 15,1 C 51 % 1028,7 hPa 0,0 l/m 0,0 km/h (0 Bft) O-SO 112 0 min 0,000 mm 0,0 UV-I 76 W/m 5,0 C 15,1 C 0,0 km/h (0 Bft) 0,00 %
27.09.2015 17:37 14,9 C 51 % 1028,7 hPa 0,0 l/m 0,0 km/h (0 Bft) O 79 0 min 0,000 mm 0,0 UV-I 71 W/m 4,9 C 14,9 C 0,0 km/h (0 Bft) 0,00 %
27.09.2015 17:42 14,7 C 51 % 1028,8 hPa 0,0 l/m 0,0 km/h (0 Bft) O-SO 112 0 min 0,000 mm 0,0 UV-I 63 W/m 4,7 C 14,7 C 0,0 km/h (0 Bft) 0,00 %
27.09.2015 17:47 14,5 C 51 % 1028,9 hPa 0,0 l/m 0,0 km/h (0 Bft) W-SW 255 0 min 0,000 mm 0,0 UV-I 56 W/m 4,5 C 14,5 C 0,0 km/h (0 Bft) 0,00 %
27.09.2015 17:52 14,3 C 52 % 1028,8 hPa 0,0 l/m 0,0 km/h (0 Bft) O-NO 72 0 min 0,000 mm 0,0 UV-I 48 W/m 4,6 C 14,3 C 0,0 km/h (0 Bft) 0,00 %
27.09.2015 17:57 14,1 C 52 % 1028,7 hPa 0,0 l/m 0,0 km/h (0 Bft) S-SO 153 0 min 0,000 mm 0,0 UV-I 42 W/m 4,4 C 14,1 C 0,0 km/h (0 Bft) 0,00 %
27.09.2015 18:02 14,0 C 55 % 1028,6 hPa 0,0 l/m 0,0 km/h (0 Bft) O 85 0 min 0,000 mm 0,0 UV-I 39 W/m 5,1 C 14,0 C 0,0 km/h (0 Bft) 0,00 %
27.09.2015 18:07 13,8 C 56 % 1028,7 hPa 0,0 l/m 0,0 km/h (0 Bft) SO 139 0 min 0,000 mm 0,0 UV-I 36 W/m 5,2 C 13,8 C 0,0 km/h (0 Bft) 0,00 %
27.09.2015 18:12 13,7 C 57 % 1028,7 hPa 0,0 l/m 0,0 km/h (0 Bft) O-NO 69 0 min 0,000 mm 0,0 UV-I 32 W/m 5,3 C 13,7 C 0,0 km/h (0 Bft) 0,00 %
27.09.2015 18:17 13,5 C 58 % 1028,8 hPa 0,0 l/m 0,0 km/h (0 Bft) O 84 0 min 0,000 mm 0,0 UV-I 27 W/m 5,4 C 13,5 C 0,0 km/h (0 Bft) 0,00 %
27.09.2015 18:22 13,4 C 61 % 1028,8 hPa 0,0 l/m 0,0 km/h (0 Bft) S 175 0 min 0,000 mm 0,0 UV-I 21 W/m 6,0 C 13,4 C 0,0 km/h (0 Bft) 0,00 %
27.09.2015 18:27 13,2 C 62 % 1028,9 hPa 0,0 l/m 0,0 km/h (0 Bft) S 175 0 min 0,000 mm 0,0 UV-I 16 W/m 6,1 C 13,2 C 0,0 km/h (0 Bft) 0,00 %
27.09.2015 18:32 13,0 C 63 % 1028,9 hPa 0,0 l/m 0,0 km/h (0 Bft) S 175 0 min 0,000 mm 0,0 UV-I 7 W/m 6,1 C 13,0 C 0,0 km/h (0 Bft) 0,00 %
27.09.2015 18:37 12,8 C 64 % 1029,0 hPa 0,0 l/m 0,0 km/h (0 Bft) S 175 0 min 0,000 mm 0,0 UV-I 4 W/m 6,2 C 12,8 C 0,0 km/h (0 Bft) 0,00 %
27.09.2015 18:42 12,6 C 66 % 1029,1 hPa 0,0 l/m 0,0 km/h (0 Bft) S 175 0 min 0,000 mm 0,0 UV-I 0 W/m 6,4 C 12,6 C 0,0 km/h (0 Bft) 0,00 %
27.09.2015 18:47 12,6 C 68 % 1029,1 hPa 0,0 l/m 0,0 km/h (0 Bft) S 175 0 min 0,000 mm 0,0 UV-I 0 W/m 6,9 C 12,6 C 0,0 km/h (0 Bft) 0,00 %
27.09.2015 18:52 12,5 C 69 % 1029,3 hPa 0,0 l/m 0,0 km/h (0 Bft) S 175 0 min 0,000 mm 0,0 UV-I 0 W/m 7,0 C 12,5 C 0,0 km/h (0 Bft) 0,00 %
27.09.2015 18:57 12,4 C 69 % 1029,3 hPa 0,0 l/m 0,0 km/h (0 Bft) S 175 0 min 0,000 mm 0,0 UV-I 0 W/m 6,9 C 12,4 C 0,0 km/h (0 Bft) 0,00 %
27.09.2015 19:02 12,3 C 69 % 1029,6 hPa 0,0 l/m 0,0 km/h (0 Bft) S 175 0 min 0,000 mm 0,0 UV-I 0 W/m 6,8 C 12,3 C 0,0 km/h (0 Bft) 0,00 %
27.09.2015 19:07 12,2 C 69 % 1029,4 hPa 0,0 l/m 0,0 km/h (0 Bft) S 175 0 min 0,000 mm 0,0 UV-I 0 W/m 6,7 C 12,2 C 0,0 km/h (0 Bft) 0,00 %
27.09.2015 19:12 12,0 C 70 % 1029,6 hPa 0,0 l/m 0,0 km/h (0 Bft) S 175 0 min 0,000 mm 0,0 UV-I 0 W/m 6,7 C 12,0 C 0,0 km/h (0 Bft) 0,00 %
27.09.2015 19:17 11,9 C 69 % 1029,7 hPa 0,0 l/m 0,0 km/h (0 Bft) S 175 0 min 0,000 mm 0,0 UV-I 0 W/m 6,4 C 11,9 C 0,0 km/h (0 Bft) 0,00 %
27.09.2015 19:22 11,7 C 70 % 1029,7 hPa 0,0 l/m 0,0 km/h (0 Bft) NO 38 0 min 0,000 mm 0,0 UV-I 0 W/m 6,4 C 11,7 C 0,0 km/h (0 Bft) 0,00 %
27.09.2015 19:27 11,5 C 69 % 1029,7 hPa 0,0 l/m 0,0 km/h (0 Bft) O-NO 59 0 min 0,000 mm 0,0 UV-I 0 W/m 6,0 C 11,5 C 0,0 km/h (0 Bft) 0,00 %
27.09.2015 19:32 11,4 C 69 % 1029,7 hPa 0,0 l/m 0,0 km/h (0 Bft) NO 48 0 min 0,000 mm 0,0 UV-I 0 W/m 5,9 C 11,4 C 0,0 km/h (0 Bft) 0,00 %
27.09.2015 19:37 11,4 C 69 % 1029,9 hPa 0,0 l/m 0,0 km/h (0 Bft) O-NO 71 0 min 0,000 mm 0,0 UV-I 0 W/m 5,9 C 11,4 C 0,0 km/h (0 Bft) 0,00 %
27.09.2015 19:42 11,4 C 64 % 1029,9 hPa 0,0 l/m 0,0 km/h (0 Bft) NO 55 0 min 0,000 mm 0,0 UV-I 0 W/m 4,8 C 11,4 C 0,0 km/h (0 Bft) 0,00 %
27.09.2015 19:47 11,6 C 61 % 1030,0 hPa 0,0 l/m 0,0 km/h (0 Bft) NO 41 0 min 0,000 mm 0,0 UV-I 0 W/m 4,3 C 11,6 C 0,0 km/h (0 Bft) 0,00 %
27.09.2015 19:52 11,8 C 61 % 1030,0 hPa 0,0 l/m 0,0 km/h (0 Bft) NO 38 0 min 0,000 mm 0,0 UV-I 0 W/m 4,5 C 11,8 C 0,0 km/h (0 Bft) 0,00 %
27.09.2015 19:57 11,9 C 61 % 1030,2 hPa 0,0 l/m 0,0 km/h (0 Bft) NO 47 0 min 0,000 mm 0,0 UV-I 0 W/m 4,6 C 11,9 C 0,0 km/h (0 Bft) 0,00 %
27.09.2015 20:02 11,8 C 60 % 1030,2 hPa 0,0 l/m 0,0 km/h (0 Bft) O-NO 61 0 min 0,000 mm 0,0 UV-I 0 W/m 4,3 C 11,8 C 0,0 km/h (0 Bft) 0,00 %
27.09.2015 20:07 11,7 C 59 % 1030,3 hPa 0,0 l/m 0,0 km/h (0 Bft) NO 46 0 min 0,000 mm 0,0 UV-I 0 W/m 4,0 C 11,7 C 0,0 km/h (0 Bft) 0,00 %
27.09.2015 20:12 11,7 C 60 % 1030,1 hPa 0,0 l/m 0,0 km/h (0 Bft) NO 54 0 min 0,000 mm 0,0 UV-I 0 W/m 4,2 C 11,7 C 0,0 km/h (0 Bft) 0,00 %
27.09.2015 20:17 11,5 C 64 % 1030,4 hPa 0,0 l/m 0,0 km/h (0 Bft) O-NO 66 0 min 0,000 mm 0,0 UV-I 0 W/m 4,9 C 11,5 C 0,0 km/h (0 Bft) 0,00 %
27.09.2015 20:22 11,3 C 65 % 1030,3 hPa 0,0 l/m 0,0 km/h (0 Bft) O-NO 61 0 min 0,000 mm 0,0 UV-I 0 W/m 5,0 C 11,3 C 0,0 km/h (0 Bft) 0,00 %
27.09.2015 20:27 11,1 C 64 % 1030,5 hPa 0,0 l/m 0,0 km/h (0 Bft) O-NO 60 0 min 0,000 mm 0,0 UV-I 0 W/m 4,6 C 11,1 C 0,0 km/h (0 Bft) 0,00 %
27.09.2015 20:32 11,0 C 62 % 1030,5 hPa 0,0 l/m 0,0 km/h (0 Bft) O-NO 60 0 min 0,000 mm 0,0 UV-I 0 W/m 4,0 C 11,0 C 0,0 km/h (0 Bft) 0,00 %
27.09.2015 20:37 11,0 C 61 % 1030,5 hPa 0,0 l/m 0,0 km/h (0 Bft) NO 41 0 min 0,000 mm 0,0 UV-I 0 W/m 3,8 C 11,0 C 0,0 km/h (0 Bft) 0,00 %
27.09.2015 20:42 11,0 C 61 % 1030,7 hPa 0,0 l/m 0,0 km/h (0 Bft) O-NO 72 0 min 0,000 mm 0,0 UV-I 0 W/m 3,8 C 11,0 C 0,0 km/h (0 Bft) 0,00 %
27.09.2015 20:47 10,9 C 62 % 1030,8 hPa 0,0 l/m 0,0 km/h (0 Bft) O-NO 58 0 min 0,000 mm 0,0 UV-I 0 W/m 3,9 C 10,9 C 0,0 km/h (0 Bft) 0,00 %
27.09.2015 20:52 10,9 C 63 % 1030,8 hPa 0,0 l/m 0,0 km/h (0 Bft) O-NO 61 0 min 0,000 mm 0,0 UV-I 0 W/m 4,1 C 10,9 C 0,0 km/h (0 Bft) 0,00 %
27.09.2015 20:57 10,9 C 63 % 1030,9 hPa 0,0 l/m 0,0 km/h (0 Bft) NO 56 0 min 0,000 mm 0,0 UV-I 0 W/m 4,1 C 10,9 C 0,0 km/h (0 Bft) 0,00 %
27.09.2015 21:02 10,8 C 61 % 1030,8 hPa 0,0 l/m 0,0 km/h (0 Bft) N-NO 29 0 min 0,000 mm 0,0 UV-I 0 W/m 3,6 C 10,8 C 0,0 km/h (0 Bft) 0,00 %
27.09.2015 21:07 10,9 C 59 % 1030,9 hPa 0,0 l/m 0,0 km/h (0 Bft) NO 42 0 min 0,000 mm 0,0 UV-I 0 W/m 3,2 C 10,9 C 0,0 km/h (0 Bft) 0,00 %
27.09.2015 21:12 11,0 C 62 % 1030,8 hPa 0,0 l/m 0,0 km/h (0 Bft) O-NO 60 0 min 0,000 mm 0,0 UV-I 0 W/m 4,0 C 11,0 C 0,0 km/h (0 Bft) 0,00 %
27.09.2015 21:17 10,9 C 61 % 1030,7 hPa 0,0 l/m 0,0 km/h (0 Bft) O-NO 62 0 min 0,000 mm 0,0 UV-I 0 W/m 3,7 C 10,9 C 0,0 km/h (0 Bft) 0,00 %
27.09.2015 21:22 10,7 C 62 % 1030,7 hPa 0,0 l/m 0,0 km/h (0 Bft) O-NO 70 0 min 0,000 mm 0,0 UV-I 0 W/m 3,7 C 10,7 C 0,0 km/h (0 Bft) 0,00 %
27.09.2015 21:27 10,6 C 62 % 1030,7 hPa 0,0 l/m 0,0 km/h (0 Bft) O-NO 71 0 min 0,000 mm 0,0 UV-I 0 W/m 3,6 C 10,6 C 0,0 km/h (0 Bft) 0,00 %
27.09.2015 21:32 10,5 C 64 % 1030,9 hPa 0,0 l/m 0,0 km/h (0 Bft) O-NO 65 0 min 0,000 mm 0,0 UV-I 0 W/m 4,0 C 10,5 C 0,0 km/h (0 Bft) 0,00 %
27.09.2015 21:37 10,4 C 64 % 1030,8 hPa 0,0 l/m 0,0 km/h (0 Bft) O-NO 66 0 min 0,000 mm 0,0 UV-I 0 W/m 3,9 C 10,4 C 0,0 km/h (0 Bft) 0,00 %
27.09.2015 21:42 10,3 C 63 % 1031,0 hPa 0,0 l/m 0,0 km/h (0 Bft) O-NO 65 0 min 0,000 mm 0,0 UV-I 0 W/m 3,6 C 10,3 C 0,0 km/h (0 Bft) 0,00 %
27.09.2015 21:47 10,2 C 63 % 1031,0 hPa 0,0 l/m 0,0 km/h (0 Bft) O-NO 72 0 min 0,000 mm 0,0 UV-I 0 W/m 3,5 C 10,2 C 0,0 km/h (0 Bft) 0,00 %
27.09.2015 21:52 10,2 C 63 % 1030,7 hPa 0,0 l/m 0,0 km/h (0 Bft) O-NO 61 0 min 0,000 mm 0,0 UV-I 0 W/m 3,5 C 10,2 C 0,0 km/h (0 Bft) 0,00 %
27.09.2015 21:57 10,1 C 63 % 1030,9 hPa 0,0 l/m 0,0 km/h (0 Bft) O-NO 64 0 min 0,000 mm 0,0 UV-I 0 W/m 3,4 C 10,1 C 0,0 km/h (0 Bft) 0,00 %
27.09.2015 22:02 10,1 C 62 % 1030,9 hPa 0,0 l/m 0,0 km/h (0 Bft) O-NO 62 0 min 0,000 mm 0,0 UV-I 0 W/m 3,2 C 10,1 C 0,0 km/h (0 Bft) 0,00 %
27.09.2015 22:07 10,0 C 63 % 1031,0 hPa 0,0 l/m 0,0 km/h (0 Bft) O-NO 66 0 min 0,000 mm 0,0 UV-I 0 W/m 3,3 C 10,0 C 0,0 km/h (0 Bft) 0,00 %
27.09.2015 22:12 10,0 C 64 % 1031,0 hPa 0,0 l/m 0,0 km/h (0 Bft) O-NO 65 0 min 0,000 mm 0,0 UV-I 0 W/m 3,5 C 10,0 C 0,0 km/h (0 Bft) 0,00 %
27.09.2015 22:17 9,8 C 65 % 1030,8 hPa 0,0 l/m 0,0 km/h (0 Bft) O-NO 64 0 min 0,000 mm 0,0 UV-I 0 W/m 3,5 C 9,8 C 0,0 km/h (0 Bft) 0,00 %
27.09.2015 22:22 9,7 C 64 % 1030,9 hPa 0,0 l/m 0,0 km/h (0 Bft) O-NO 61 0 min 0,000 mm 0,0 UV-I 0 W/m 3,2 C 9,7 C 0,0 km/h (0 Bft) 0,00 %
27.09.2015 22:27 9,7 C 65 % 1030,9 hPa 0,0 l/m 0,0 km/h (0 Bft) O-NO 62 0 min 0,000 mm 0,0 UV-I 0 W/m 3,4 C 9,7 C 0,0 km/h (0 Bft) 0,00 %
27.09.2015 22:32 9,6 C 68 % 1030,9 hPa 0,0 l/m 0,0 km/h (0 Bft) O-NO 73 0 min 0,000 mm 0,0 UV-I 0 W/m 4,0 C 9,6 C 0,0 km/h (0 Bft) 0,00 %
27.09.2015 22:37 9,5 C 69 % 1031,0 hPa 0,0 l/m 0,0 km/h (0 Bft) O 87 0 min 0,000 mm 0,0 UV-I 0 W/m 4,1 C 9,5 C 0,0 km/h (0 Bft) 0,00 %
27.09.2015 22:42 9,3 C 71 % 1031,1 hPa 0,0 l/m 0,0 km/h (0 Bft) O 89 0 min 0,000 mm 0,0 UV-I 0 W/m 4,3 C 9,3 C 0,0 km/h (0 Bft) 0,00 %
27.09.2015 22:47 9,2 C 71 % 1030,9 hPa 0,0 l/m 0,0 km/h (0 Bft) O 79 0 min 0,000 mm 0,0 UV-I 0 W/m 4,2 C 9,2 C 0,0 km/h (0 Bft) 0,00 %
27.09.2015 22:52 9,2 C 70 % 1030,8 hPa 0,0 l/m 0,0 km/h (0 Bft) O-NO 62 0 min 0,000 mm 0,0 UV-I 0 W/m 4,0 C 9,2 C 0,0 km/h (0 Bft) 0,00 %
27.09.2015 22:57 9,1 C 71 % 1030,9 hPa 0,0 l/m 0,0 km/h (0 Bft) SO 135 0 min 0,000 mm 0,0 UV-I 0 W/m 4,1 C 9,1 C 0,0 km/h (0 Bft) 0,00 %
27.09.2015 23:02 9,1 C 71 % 1030,8 hPa 0,0 l/m 0,0 km/h (0 Bft) O 80 0 min 0,000 mm 0,0 UV-I 0 W/m 4,1 C 9,1 C 0,0 km/h (0 Bft) 0,00 %
27.09.2015 23:07 9,1 C 71 % 1030,9 hPa 0,0 l/m 0,0 km/h (0 Bft) O 80 0 min 0,000 mm 0,0 UV-I 0 W/m 4,1 C 9,1 C 0,0 km/h (0 Bft) 0,00 %
27.09.2015 23:12 9,1 C 70 % 1030,8 hPa 0,0 l/m 0,0 km/h (0 Bft) O 86 0 min 0,000 mm 0,0 UV-I 0 W/m 3,9 C 9,1 C 0,0 km/h (0 Bft) 0,00 %
27.09.2015 23:17 9,1 C 68 % 1030,9 hPa 0,0 l/m 0,0 km/h (0 Bft) O 85 0 min 0,000 mm 0,0 UV-I 0 W/m 3,5 C 9,1 C 0,0 km/h (0 Bft) 0,00 %
27.09.2015 23:22 9,1 C 68 % 1030,7 hPa 0,0 l/m 0,0 km/h (0 Bft) O 85 0 min 0,000 mm 0,0 UV-I 0 W/m 3,5 C 9,1 C 0,0 km/h (0 Bft) 0,00 %
27.09.2015 23:27 9,1 C 70 % 1030,8 hPa 0,0 l/m 0,0 km/h (0 Bft) O 96 0 min 0,000 mm 0,0 UV-I 0 W/m 3,9 C 9,1 C 0,0 km/h (0 Bft) 0,00 %
27.09.2015 23:32 9,1 C 68 % 1030,9 hPa 0,0 l/m 0,0 km/h (0 Bft) O-SO 110 0 min 0,000 mm 0,0 UV-I 0 W/m 3,5 C 9,1 C 0,0 km/h (0 Bft) 0,00 %
27.09.2015 23:37 9,1 C 70 % 1031,0 hPa 0,0 l/m 0,0 km/h (0 Bft) O 90 0 min 0,000 mm 0,0 UV-I 0 W/m 3,9 C 9,1 C 0,0 km/h (0 Bft) 0,00 %
27.09.2015 23:42 9,0 C 71 % 1030,9 hPa 0,0 l/m 0,0 km/h (0 Bft) O-NO 62 0 min 0,000 mm 0,0 UV-I 0 W/m 4,0 C 9,0 C 0,0 km/h (0 Bft) 0,00 %
27.09.2015 23:47 9,0 C 71 % 1030,9 hPa 0,0 l/m 0,0 km/h (0 Bft) O-NO 71 0 min 0,000 mm 0,0 UV-I 0 W/m 4,0 C 9,0 C 0,0 km/h (0 Bft) 0,00 %
27.09.2015 23:52 8,9 C 72 % 1031,0 hPa 0,0 l/m 0,0 km/h (0 Bft) O-NO 71 0 min 0,000 mm 0,0 UV-I 0 W/m 4,1 C 8,9 C 0,0 km/h (0 Bft) 0,00 %
27.09.2015 23:57 8,9 C 74 % 1030,9 hPa 0,0 l/m 0,0 km/h (0 Bft) O-NO 74 0 min 0,000 mm 0,0 UV-I 0 W/m 4,5 C 8,9 C 0,0 km/h (0 Bft) 0,00 %
_ Min-Zeit 23:52 16:42 00:01 - 00:01 - - - - - - 16:42 23:52 00:01 00:01
Minimum _ 8,9 C 41 % 1024,9 hPa - 0,0 km/h (0 Bft) - - - - - - 2,9 C 8,9 C 0,0 km/h (0 Bft) 0,00 %
_ Max-Zeit 17:07 08:16 22:42 00:01 11:51 - - 14:52 00:01 12:11 16:32 08:16 17:07 10:51 00:01
Maximum _ 17,4 C 88 % 1031,1 hPa 0,0 l/m 6,8 km/h
O (2 Bft)
- - 5 min 0,000 mm 2,0 UV-I 706 W/m 7,7 C 17,4 C 7,9 km/h
O (2 Bft)
0,00 %
Durchschnitt _ 11,5 C 69 % 1027,8 hPa #0,0 l/m 0,3 km/h (0 Bft) O - #1:00 h #0,000 mm 1,0 UV-I 179 W/m 5,8 C 11,5 C 0,7 km/h (0 Bft) 0,00 %